Location: Zielona Góra
(51.9356°N, 15.5062°E)
Time: 13:11:30
(UTC+01:00)

ISS - Visible Passes

Search period start: 24 March 2019 00:00
Search period end: 03 April 2019 01:00
Orbit: 408 x 411 km, 51.6° (Epoch: 24 March)

Date Brightness Start Highest point End Pass type
(mag) Time Alt. Az. Time Alt. Az. Time Alt. Az.
24 Mar -3.0 19:32:51 10° SW 19:35:52 33° SSE 19:37:09 24° ESE visible
24 Mar -1.3 21:08:56 10° WSW 21:09:56 18° WSW 21:09:56 18° WSW visible
25 Mar -3.9 20:18:19 10° WSW 20:21:37 69° SSE 20:21:38 69° SSE visible
26 Mar -3.6 19:27:45 10° WSW 19:30:59 54° SSE 19:33:13 18° E visible
26 Mar -2.0 21:04:12 10° W 21:05:59 29° W 21:05:59 29° W visible
27 Mar -3.9 20:13:30 10° W 20:16:50 85° S 20:17:27 56° E visible
27 Mar -0.5 21:50:06 10° W 21:50:13 11° W 21:50:13 11° W visible
28 Mar -3.8 19:22:50 10° WSW 19:26:09 76° S 19:28:51 14° E visible
28 Mar -2.5 20:59:24 10° W 21:01:37 39° W 21:01:37 39° W visible
29 Mar -3.9 20:08:42 10° W 20:12:01 86° S 20:12:58 44° E visible
29 Mar -0.8 21:45:19 10° W 21:45:43 13° W 21:45:43 13° W visible
30 Mar -3.8 19:17:59 10° W 19:21:18 87° S 19:24:16 12° E visible
30 Mar -2.8 20:54:34 10° W 20:57:01 42° WSW 20:57:01 42° WSW visible
31 Mar -3.8 21:03:50 10° W 21:07:08 72° SSW 21:08:18 37° ESE visible
31 Mar -0.9 22:40:37 10° W 22:41:03 13° W 22:41:03 13° W visible
01 Apr -3.8 20:13:05 10° W 20:16:25 83° S 20:19:35 11° E visible
01 Apr -2.6 21:49:44 10° W 21:52:20 34° SW 21:52:20 34° SW visible
02 Apr -3.3 20:58:56 10° W 21:02:09 49° SSW 21:03:36 27° SE visible
02 Apr -0.7 22:36:20 10° WSW 22:36:21 10° WSW 22:36:21 10° WSW visible
